SCP
0 0 0 0 0 1 0 0 0 0 0 0 0 0 0 0 0 0 0 0 0 0 0 0 0 0 0 0 0 0 0 0
0 0 0 0 1 1 1 0 1 1 1 0 0 0 0 0 0 0 0 0 0 0 0 0 0 0 0 0 0 0 0 0
0 0 0 1 1 1 1 1 1 1 1 1 1 0 0 0 0 0 0 0 0 0 0 0 0 0 0 0 0 0 0 0
0 0 0 1 1 1 1 1 1 1 1 1 1 0 0 0 0 0 0 0 0 0 0 0 0 0 0 0 0 0 0 0
0 0 0 1 1 1 1 2 1 2 1 1 1 0 0 0 0 0 0 0 0 0 0 0 0 0 1 1 1 0 0 1
0 0 0 1 1 1 1 2 1 2 2 1 1 1 0 0 0 0 0 0 0 0 0 0 0 1 1 1 1 1 1 1
0 0 0 0 1 1 2 1 1 1 2 1 1 1 0 0 0 0 0 0 0 0 0 1 1 1 1 2 2 2 1 1
0 0 0 0 1 2 3 1 1 1 2 1 1 1 1 1 0 0 1 0 0 0 0 1 2 2 3 2 2 1 1 1
0 0 0 1 1 3 3 1 3 3 2 1 1 1 1 1 1 1 1 1 1 1 0 1 3 1 0 1 0 1 1 1
0 0 1 3 2 4 2 1 4 2 1 1 1 1 1 1 1 1 1 1 1 1 2 1 1 0 0 0 1 1 1 0
0 0 1 4 4 3 2 1 2 1 1 2 2 2 2 1 1 1 2 2 3 2 0 0 0 0 0 0 0 0 -0 0
0 1 2 3 3 2 2 2 2 1 1 2 3 2 2 3 2 1 1 1 0 0 0 0 0 0 0 0 0 -0 0 -0
0 1 1 2 4 5 4 3 2 2 2 2 3 2 1 1 1 1 1 0 0 0 0 0 0 0 0 -0 -0 -0 -0 0
0 1 2 2 3 5 5 2 2 3 3 4 1 1 1 1 1 0 0 0 1 1 0 0 0 0 0 0 -0 -0 0 0
0 1 2 2 2 4 5 4 4 3 2 2 1 1 1 0 -0 -0 0 0 0 0 0 0 0 0 0 0 0 0 0 0
0 1 2 2 3 4 4 3 3 3 3 1 1 0 0 0 0 0 0 0 0 0 0 0 0 0 0 0 0 0 0 0
0 1 2 3 4 3 2 2 2 3 2 0 0 0 0 0 0 0 0 0 0 0 0 0 0 0 0 0 0 0 0 0
0 1 2 3 3 3 1 2 2 1 1 0 0 0 0 0 0 0 0 0 0 0 0 0 0 0 0 0 0 0 0 0
0 0 2 3 3 2 2 2 2 1 1 1 0 0 0 0 0 0 0 0 0 0 0 0 0 0 0 0 0 0 0 0
0 1 2 2 1 1 1 1 0 0 0 0 0 0 0 0 0 0 0 0 0 0 0 0 0 0 0 0 0 0 0 0
Wind_Speed_500mb
33 33 38 49 55 56 57 56 54 53 46 50 42 44 44 38 33 31 27 26 26 24 18 21 19 20 12 14 12 9 11 12
34 37 40 46 55 57 56 56 57 56 47 47 41 39 39 36 32 33 29 26 27 24 19 18 18 14 15 14 11 13 10 12
31 33 39 45 54 59 59 59 59 57 50 44 41 37 38 32 33 34 28 26 27 26 21 17 16 15 12 12 12 9 9 12
38 33 38 50 56 61 59 58 57 55 49 43 39 35 35 33 28 30 32 27 26 23 22 18 15 16 14 11 11 10 10 13
45 34 38 48 55 56 61 61 62 53 49 45 36 33 31 30 26 30 28 25 25 22 18 17 17 17 21 15 12 12 11 17
44 42 38 45 52 58 59 72 54 54 51 45 35 31 30 27 25 24 26 25 23 22 14 17 18 19 16 15 12 13 14 21
50 44 40 46 52 57 63 66 54 52 50 45 37 33 28 24 22 19 25 24 23 19 15 15 26 18 16 20 16 16 17 21
56 48 41 47 51 55 60 56 53 50 42 40 31 25 24 20 19 17 21 21 23 24 23 21 21 18 21 24 16 14 27 39
53 45 41 49 50 59 66 59 56 56 48 36 30 25 23 19 18 23 19 20 20 23 26 23 23 29 28 24 13 12 19 27
43 41 46 56 59 69 69 60 63 61 40 35 28 25 22 19 18 21 20 20 21 22 16 28 34 35 31 16 8 29 31 34
43 41 53 61 66 67 64 63 62 55 49 44 37 31 26 19 15 14 14 15 19 22 28 30 32 31 21 10 9 11 29 34
44 46 58 58 61 61 59 55 56 55 51 45 37 26 29 33 24 18 16 15 21 32 34 23 15 11 12 15 13 19 32 28
46 53 57 57 54 57 57 61 57 57 55 49 28 40 35 29 20 8 11 12 22 26 17 11 13 13 21 19 16 21 27 25
49 49 58 56 58 57 57 58 56 49 42 39 45 44 38 28 14 10 10 8 24 23 33 21 16 16 5 10 19 23 26 28
48 51 61 60 64 55 57 59 51 42 41 51 47 42 32 19 13 22 26 23 25 27 23 22 18 13 10 13 19 22 27 30
51 53 58 64 62 55 62 54 56 57 59 54 51 37 28 23 32 28 23 31 29 27 30 20 12 5 13 14 20 23 26 27
53 53 53 63 63 58 58 59 67 72 67 54 47 35 33 40 37 38 31 28 27 25 15 8 8 6 13 14 16 23 24 23
55 54 52 57 56 61 58 67 81 72 59 53 46 43 39 43 43 31 25 22 25 22 11 3 3 10 12 17 21 21 19 19
59 57 61 62 61 74 79 84 78 68 58 55 52 53 49 48 41 27 29 29 21 7 1 7 9 12 16 17 15 12 12 15
64 65 69 72 72 84 82 75 69 65 60 58 52 51 56 50 41 33 30 21 14 9 5 5 9 13 12 8 6 7 13 19
Wind_Direction_500mb
220 215 207 201 196 192 191 190 185 185 186 188 183 190 192 193 194 193 182 188 195 187 200 210 214 219 219 249 245 258 256 252
222 223 214 205 201 198 194 194 190 185 187 184 186 185 190 191 192 197 199 193 202 191 197 201 200 212 213 222 237 238 253 272
227 227 218 208 204 201 199 196 192 189 185 186 186 187 192 188 198 206 206 199 209 205 206 202 205 214 226 217 225 235 263 288
232 232 216 207 205 204 201 201 193 190 187 186 187 187 193 195 197 208 212 209 217 208 213 211 214 210 212 207 222 232 259 278
233 224 216 212 210 205 203 198 202 190 187 190 187 192 190 194 196 214 216 213 218 204 209 211 217 217 224 230 237 261 281 292
228 223 220 215 209 206 203 204 193 191 191 194 188 194 191 194 196 207 213 214 212 208 212 219 218 220 228 240 258 256 274 304
226 226 225 220 210 203 208 206 191 189 194 196 192 199 189 195 195 195 212 211 212 201 201 218 221 232 245 242 259 264 279 308
227 227 227 216 206 198 204 195 188 185 188 189 184 194 190 191 189 189 215 212 218 216 217 221 223 243 240 248 249 279 332 332
220 220 216 199 195 193 197 183 184 186 186 179 183 185 182 184 182 207 217 229 236 234 228 234 235 235 228 230 245 326 302 298
209 208 200 193 189 193 192 187 190 193 180 174 175 174 179 181 181 212 225 238 249 247 238 237 244 255 266 247 296 317 314 283
205 199 191 195 190 188 186 187 199 192 185 185 178 172 164 161 169 175 198 219 219 235 245 248 251 271 284 239 301 310 318 299
201 193 188 189 192 184 181 181 185 183 188 189 182 165 164 180 193 198 220 238 255 273 276 268 240 251 140 158 218 245 308 309
191 188 191 193 189 176 176 181 180 182 179 182 163 187 189 183 186 209 221 239 268 262 196 154 97 129 158 180 197 277 289 287
186 184 186 187 175 163 160 168 171 171 174 173 185 191 176 169 151 156 143 212 202 187 163 146 137 143 185 267 285 279 286 290
181 176 183 176 168 166 171 176 178 172 164 178 172 177 163 151 133 132 159 159 168 172 174 161 140 154 222 281 274 285 296 297
183 176 177 175 168 166 178 184 167 158 161 172 163 163 159 133 141 157 149 176 161 153 157 145 134 242 250 259 290 293 297 306
177 172 171 174 170 164 164 175 159 154 165 159 158 162 146 147 163 179 171 156 156 164 154 153 113 231 277 293 296 308 315 327
170 162 159 160 162 157 168 166 156 157 153 156 160 153 151 163 177 168 175 170 161 151 148 106 350 276 300 317 321 320 334 331
168 155 152 151 148 159 153 153 156 152 163 152 159 164 174 170 174 173 173 163 142 134 240 294 306 320 323 320 334 341 336 338
165 153 150 148 154 154 154 154 154 160 161 162 165 171 172 173 165 159 159 156 149 195 241 297 314 318 337 351 359 348 356 8
Wind_Speed_850mb
33 33 38 49 55 56 57 56 54 53 46 50 42 44 44 38 33 31 27 26 26 24 18 21 19 20 12 14 12 9 11 12
34 37 40 46 55 57 56 56 57 56 47 47 41 39 39 36 32 33 29 26 27 24 19 18 18 14 15 14 11 13 10 12
31 33 39 45 54 59 59 59 59 57 50 44 41 37 38 32 33 34 28 26 27 26 21 17 16 15 12 12 12 9 9 12
38 33 38 50 56 61 59 58 57 55 49 43 39 35 35 33 28 30 32 27 26 23 22 18 15 16 14 11 11 10 10 13
45 34 38 48 55 56 61 61 62 53 49 45 36 33 31 30 26 30 28 25 25 22 18 17 17 17 21 15 12 12 11 17
44 42 38 45 52 58 59 72 54 54 51 45 35 31 30 27 25 24 26 25 23 22 14 17 18 19 16 15 12 13 14 21
50 44 40 46 52 57 63 66 54 52 50 45 37 33 28 24 22 19 25 24 23 19 15 15 26 18 16 20 16 16 17 21
56 48 41 47 51 55 60 56 53 50 42 40 31 25 24 20 19 17 21 21 23 24 23 21 21 18 21 24 16 14 27 39
53 45 41 49 50 59 66 59 56 56 48 36 30 25 23 19 18 23 19 20 20 23 26 23 23 29 28 24 13 12 19 27
43 41 46 56 59 69 69 60 63 61 40 35 28 25 22 19 18 21 20 20 21 22 16 28 34 35 31 16 8 29 31 34
43 41 53 61 66 67 64 63 62 55 49 44 37 31 26 19 15 14 14 15 19 22 28 30 32 31 21 10 9 11 29 34
44 46 58 58 61 61 59 55 56 55 51 45 37 26 29 33 24 18 16 15 21 32 34 23 15 11 12 15 13 19 32 28
46 53 57 57 54 57 57 61 57 57 55 49 28 40 35 29 20 8 11 12 22 26 17 11 13 13 21 19 16 21 27 25
49 49 58 56 58 57 57 58 56 49 42 39 45 44 38 28 14 10 10 8 24 23 33 21 16 16 5 10 19 23 26 28
48 51 61 60 64 55 57 59 51 42 41 51 47 42 32 19 13 22 26 23 25 27 23 22 18 13 10 13 19 22 27 30
51 53 58 64 62 55 62 54 56 57 59 54 51 37 28 23 32 28 23 31 29 27 30 20 12 5 13 14 20 23 26 27
53 53 53 63 63 58 58 59 67 72 67 54 47 35 33 40 37 38 31 28 27 25 15 8 8 6 13 14 16 23 24 23
55 54 52 57 56 61 58 67 81 72 59 53 46 43 39 43 43 31 25 22 25 22 11 3 3 10 12 17 21 21 19 19
59 57 61 62 61 74 79 84 78 68 58 55 52 53 49 48 41 27 29 29 21 7 1 7 9 12 16 17 15 12 12 15
64 65 69 72 72 84 82 75 69 65 60 58 52 51 56 50 41 33 30 21 14 9 5 5 9 13 12 8 6 7 13 19
Wind_Direction_850mb
220 215 207 201 196 192 191 190 185 185 186 188 183 190 192 193 194 193 182 188 195 187 200 210 214 219 219 249 245 258 256 252
222 223 214 205 201 198 194 194 190 185 187 184 186 185 190 191 192 197 199 193 202 191 197 201 200 212 213 222 237 238 253 272
227 227 218 208 204 201 199 196 192 189 185 186 186 187 192 188 198 206 206 199 209 205 206 202 205 214 226 217 225 235 263 288
232 232 216 207 205 204 201 201 193 190 187 186 187 187 193 195 197 208 212 209 217 208 213 211 214 210 212 207 222 232 259 278
233 224 216 212 210 205 203 198 202 190 187 190 187 192 190 194 196 214 216 213 218 204 209 211 217 217 224 230 237 261 281 292
228 223 220 215 209 206 203 204 193 191 191 194 188 194 191 194 196 207 213 214 212 208 212 219 218 220 228 240 258 256 274 304
226 226 225 220 210 203 208 206 191 189 194 196 192 199 189 195 195 195 212 211 212 201 201 218 221 232 245 242 259 264 279 308
227 227 227 216 206 198 204 195 188 185 188 189 184 194 190 191 189 189 215 212 218 216 217 221 223 243 240 248 249 279 332 332
220 220 216 199 195 193 197 183 184 186 186 179 183 185 182 184 182 207 217 229 236 234 228 234 235 235 228 230 245 326 302 298
209 208 200 193 189 193 192 187 190 193 180 174 175 174 179 181 181 212 225 238 249 247 238 237 244 255 266 247 296 317 314 283
205 199 191 195 190 188 186 187 199 192 185 185 178 172 164 161 169 175 198 219 219 235 245 248 251 271 284 239 301 310 318 299
201 193 188 189 192 184 181 181 185 183 188 189 182 165 164 180 193 198 220 238 255 273 276 268 240 251 140 158 218 245 308 309
191 188 191 193 189 176 176 181 180 182 179 182 163 187 189 183 186 209 221 239 268 262 196 154 97 129 158 180 197 277 289 287
186 184 186 187 175 163 160 168 171 171 174 173 185 191 176 169 151 156 143 212 202 187 163 146 137 143 185 267 285 279 286 290
181 176 183 176 168 166 171 176 178 172 164 178 172 177 163 151 133 132 159 159 168 172 174 161 140 154 222 281 274 285 296 297
183 176 177 175 168 166 178 184 167 158 161 172 163 163 159 133 141 157 149 176 161 153 157 145 134 242 250 259 290 293 297 306
177 172 171 174 170 164 164 175 159 154 165 159 158 162 146 147 163 179 171 156 156 164 154 153 113 231 277 293 296 308 315 327
170 162 159 160 162 157 168 166 156 157 153 156 160 153 151 163 177 168 175 170 161 151 148 106 350 276 300 317 321 320 334 331
168 155 152 151 148 159 153 153 156 152 163 152 159 164 174 170 174 173 173 163 142 134 240 294 306 320 323 320 334 341 336 338
165 153 150 148 154 154 154 154 154 160 161 162 165 171 172 173 165 159 159 156 149 195 241 297 314 318 337 351 359 348 356 8